TimeEDT,TemperatureF,Dew PointF,Humidity,Sea Level PressureIn,VisibilityMPH,Wind Direction,Wind SpeedMPH,Gust SpeedMPH,PrecipitationIn,Events,Conditions,WindDirDegrees,DateUTC
12:17 AM,71.6,69.8,94,30.02,4.0,WNW,13.8,20.7,0.14,Rain-Thunderstorm,Heavy Rain,290,2013-04-15 04:17:00
12:25 AM,69.8,66.2,88,30.02,2.0,WNW,16.1,25.3,0.27,Rain,Heavy Rain,300,2013-04-15 04:25:00
12:27 AM,69.8,66.2,88,30.02,1.8,NW,18.4,25.3,0.29,Rain-Thunderstorm,Heavy Thunderstorms and Rain,310,2013-04-15 04:27:00
12:33 AM,68.0,66.2,94,30.02,2.0,NW,13.8,25.3,0.36,Rain-Thunderstorm,Heavy Thunderstorms and Rain,310,2013-04-15 04:33:00
12:44 AM,66.2,66.2,100,30.02,3.0,North,10.4,20.7,0.46,Rain-Thunderstorm,Heavy Rain,350,2013-04-15 04:44:00
12:48 AM,66.2,66.2,100,30.03,2.0,North,8.1,20.7,0.54,Rain,Heavy Rain,350,2013-04-15 04:48:00
12:53 AM,66.9,64.9,93,30.03,1.8,North,6.9,-,0.65,Rain,Heavy Rain,350,2013-04-15 04:53:00
1:01 AM,66.2,64.4,94,30.02,1.5,North,5.8,-,0.20,Rain,Heavy Rain,360,2013-04-15 05:01:00
1:05 AM,66.2,64.4,94,30.02,2.5,North,4.6,-,0.24,Rain,Rain,360,2013-04-15 05:05:00
1:13 AM,66.2,64.4,94,30.02,4.0,North,5.8,-,0.27,Rain,Rain,10,2013-04-15 05:13:00
1:24 AM,66.2,64.4,94,30.01,8.0,North,9.2,-,0.29,Rain-Thunderstorm,Light Thunderstorms and Rain,10,2013-04-15 05:24:00
1:39 AM,66.2,64.4,94,30.02,7.0,WSW,6.9,-,0.30,Rain,Light Rain,250,2013-04-15 05:39:00
1:53 AM,66.9,64.9,93,30.00,2.5,NE,3.5,-,0.37,Rain,Rain,50,2013-04-15 05:53:00
2:00 AM,66.2,64.4,94,30.00,6.0,SE,3.5,-,0.01,Rain,Light Rain,130,2013-04-15 06:00:00
2:53 AM,68.0,64.9,90,29.99,10.0,SW,3.5,-,0.02,,Overcast,220,2013-04-15 06:53:00
3:53 AM,66.9,64.9,93,29.95,10.0,SW,3.5,-,N/A,,Partly Cloudy,230,2013-04-15 07:53:00
4:53 AM,66.0,64.0,93,29.95,10.0,Calm,Calm,-,N/A,,Partly Cloudy,0,2013-04-15 08:53:00
5:53 AM,66.0,64.0,93,29.95,10.0,Calm,Calm,-,N/A,,Clear,0,2013-04-15 09:53:00
6:53 AM,66.0,64.0,93,29.97,10.0,Calm,Calm,-,N/A,,Clear,0,2013-04-15 10:53:00
7:53 AM,68.0,66.0,93,29.98,10.0,Calm,Calm,-,N/A,,Scattered Clouds,0,2013-04-15 11:53:00
8:53 AM,73.9,66.0,76,30.00,10.0,South,5.8,-,N/A,,Clear,170,2013-04-15 12:53:00
9:53 AM,78.1,64.9,64,30.01,10.0,Calm,Calm,-,N/A,,Clear,0,2013-04-15 13:53:00
10:53 AM,81.0,70.0,69,30.02,10.0,SE,9.2,-,N/A,,Clear,130,2013-04-15 14:53:00
11:53 AM,84.0,71.1,65,30.02,10.0,ESE,13.8,-,N/A,,Scattered Clouds,120,2013-04-15 15:53:00
12:53 PM,84.9,73.0,67,30.01,10.0,ESE,17.3,-,N/A,,Scattered Clouds,120,2013-04-15 16:53:00
1:53 PM,84.9,73.0,67,30.01,10.0,SE,12.7,-,N/A,,Partly Cloudy,130,2013-04-15 17:53:00
2:48 PM,84.2,73.4,70,30.00,10.0,ESE,10.4,-,N/A,Thunderstorm,Thunderstorm,110,2013-04-15 18:48:00
2:53 PM,84.0,73.9,72,30.00,10.0,ESE,8.1,-,N/A,Thunderstorm,Mostly Cloudy,110,2013-04-15 18:53:00
3:53 PM,79.0,75.0,88,29.99,10.0,ENE,12.7,-,0.01,Thunderstorm,Overcast,70,2013-04-15 19:53:00
4:04 PM,77.0,73.4,89,29.99,10.0,East,5.8,-,N/A,Thunderstorm,Overcast,80,2013-04-15 20:04:00
4:17 PM,77.0,73.4,89,29.99,10.0,NNE,4.6,-,N/A,,Overcast,30,2013-04-15 20:17:00
4:45 PM,80.6,73.4,79,30.00,10.0,ENE,9.2,-,N/A,,Overcast,60,2013-04-15 20:45:00
4:53 PM,79.0,72.0,79,29.99,10.0,ENE,10.4,-,N/A,,Mostly Cloudy,60,2013-04-15 20:53:00
5:53 PM,77.0,72.0,84,30.00,10.0,NE,9.2,-,N/A,,Overcast,40,2013-04-15 21:53:00
6:50 PM,78.8,71.6,78,30.00,10.0,NE,9.2,-,N/A,,Scattered Clouds,50,2013-04-15 22:50:00
6:53 PM,78.1,72.0,81,30.01,10.0,NE,9.2,-,N/A,,Scattered Clouds,50,2013-04-15 22:53:00
7:27 PM,77.0,73.4,89,30.03,10.0,ENE,3.5,-,N/A,,Mostly Cloudy,70,2013-04-15 23:27:00
7:37 PM,77.0,73.4,89,30.04,10.0,East,3.5,-,N/A,,Overcast,80,2013-04-15 23:37:00
7:53 PM,77.0,73.0,88,30.04,10.0,ENE,3.5,-,N/A,,Overcast,60,2013-04-15 23:53:00
8:49 PM,77.0,73.4,89,30.05,10.0,Calm,Calm,-,N/A,,Mostly Cloudy,0,2013-04-16 00:49:00
8:53 PM,77.0,73.0,88,30.06,10.0,Calm,Calm,-,N/A,,Scattered Clouds,0,2013-04-16 00:53:00
9:41 PM,77.0,73.4,89,30.08,10.0,SSW,8.1,-,N/A,,Mostly Cloudy,210,2013-04-16 01:41:00
9:53 PM,77.0,73.0,88,30.08,10.0,SW,10.4,-,N/A,,Overcast,220,2013-04-16 01:53:00
10:05 PM,75.2,71.6,89,30.09,10.0,SW,9.2,-,N/A,,Overcast,230,2013-04-16 02:05:00
10:15 PM,75.2,69.8,83,30.09,10.0,WSW,9.2,-,N/A,,Scattered Clouds,240,2013-04-16 02:15:00
10:53 PM,75.0,69.1,82,30.08,10.0,Calm,Calm,-,N/A,,Overcast,0,2013-04-16 02:53:00
11:53 PM,72.0,68.0,87,30.07,10.0,Calm,Calm,-,N/A,,Clear,0,2013-04-16 03:53:00